Hourly Weather Roundup
Issued by NWS Central Illinois

Home | Current Version | Previous Version | Text Only | Print | Product List | Glossary On
Versions: 1 2 3 4 5 6 7 8 9 10 11 12 13 14 15 16 17 18 19 20 21 22 23 24 25 26 27 28 29 30 31 32 33 34 35 36 37 38 39 40 41 42 43 44 45 46 47 48 49 50
000
NZUS43 KILX 280710
HWRILX

AREA WEATHER ROUNDUP
NATIONAL WEATHER SERVICE, LINCOLN IL
200 AM CDT SAT MAR 28 2015


CITY           SKY/WX    TMP DP  RH WIND       PRES   REMARKS
BLOOMINGTON    CLEAR     20  16  84 E6        30.22S WCI  12
CHAMPAIGN      CLEAR     21  14  74 NE6       30.22R WCI  13
DECATUR        CLEAR     22  17  81 E6        30.22R WCI  14
EFFINGHAM      CLEAR     27  18  67 NE5       30.23S WCI  22
FLORA          CLEAR     27  20  75 N3        30.22S
GALESBURG      NOT AVBL
JACKSONVILLE   PTCLDY    26  21  79 E5        30.21S WCI  21
LACON          CLEAR     20  15  78 CALM      30.24R
LAWRENCEVILLE  CLEAR     26  19  74 N5        30.22R WCI  20
LITCHFIELD     CLEAR     27  17  66 CALM      30.20S
$$


CITY           SKY/WX    TMP DP  RH WIND       PRES   REMARKS
LINCOLN        CLEAR     26  19  77 E7        30.24S WCI  18
MACOMB         PTCLDY    23  18  78 E3        30.22S
MATTOON        FAIR      24  15  68 NE8       30.21R WCI  15
MT CARMEL AP   CLEAR     30  21  69 NE5       30.22R WCI  25
OLNEY-NOBLE AP CLEAR     28  19  69 NE7       30.23R WCI  21
PARIS          CLEAR     23  18  80 CALM      30.22S
PEORIA         PTCLDY    25  15  66 E8        30.23R WCI  16
PONTIAC        CLEAR     21  19  90 CALM      30.24R
RANTOUL        CLEAR     23  17  75 CALM      30.21S
ROBINSON       CLEAR     24  17  73 NE6       30.23R WCI  17
SPRINGFIELD    CLEAR     24  16  71 NE3       30.22S
TAYLORVILLE    CLEAR     27  19  74 NE7       30.21S WCI  19
$$

...REGIONAL REPORTS...


CITY           SKY/WX    TMP DP  RH WIND       PRES   REMARKS
CHICAGO O`HARE CLEAR     22  13  68 N5        30.22R WCI  16
KANKAKEE       CLEAR     22  17  79 CALM      30.23R
MOLINE         PTCLDY    20  13  74 E3        30.21S
MOUNT VERNON   CLEAR     23  18  80 CALM      30.21S
PITTSFIELD     PTCLDY    29  20  68 CALM      30.21S
QUINCY         PTCLDY    28  13  53 SE7       30.19S WCI  21
ROCKFORD       CLEAR     21  14  74 CALM      30.25S
$$


CITY           SKY/WX    TMP DP  RH WIND       PRES   REMARKS
BURLINGTON     PTCLDY    27  14  58 SE6       30.19S WCI  20
CEDAR RAPIDS   PTCLDY    21  14  74 E5        30.18S WCI  15
DES MOINES     CLOUDY    34  11  38 SE8       30.15S WCI  27
KIRKSVILLE     MOCLDY    29  19  66 E6        30.16F WCI  23
OTTUMWA        PTCLDY    26  12  55 SE6       30.16F WCI  19
ST LOUIS       PTCLDY    30  16  56 E5        30.21S WCI  25
$$


CITY           SKY/WX    TMP DP  RH WIND       PRES   REMARKS
TERRE HAUTE    CLEAR     23  14  68 N7        30.21S WCI  15
EVANSVILLE     CLEAR     29  17  61 CALM      30.21R
INDIANAPOLIS   MOCLDY    21  12  68 N10       30.16S WCI  10
LAFAYETTE      CLEAR     18  13  80 NW3       30.21S
MADISON        CLEAR     22  12  65 S5        30.21S WCI  16
MILWAUKEE      PTCLDY    22  11  62 W5        30.23S WCI  16
$$





USA.gov is the U.S. government's official web portal to all federal, state and local government web resources and services.